DELTA 1 DEB, 13534

Orbit data source: Space-Track

DELTA 1 DEB, 13534 is space debris in LEO originally from a launch on Thu, 29 Jul 1976 UTC launched from the Air Force Western Test Range (AFWTR). Debris objects in space refer to the collection of defunct objects orbiting the Earth. Examples of debris include non-operational satellites, rocket bodies, and fragments generated from explosions, collisions, or faulty payload assembly.

Loading next visibility...
Identifier
13534, 1976-077EG
Orbit
LEO
Country
Flag of USUS
Related business
Manufacturer
Unknown
Mission
Spacecraft
Bus & Motor
Unknown
Mass
Unknown
Launch date (UTC)
1976-07-29 (50 years ago)
Launch vehicle
Unknown
Launch site
Air Force Western Test Range (AFWTR)
Object type
Payload
Rocket body
Debris
Shape & HBR
Unknown shape, 0.1 m
Radar Cross Section
Medium (>0.1 m² and <1 m²)

Expand to show TLE details & history
Last TLE update: 8 hours ago

TLE from 8 hours ago
0 DELTA 1 DEB
1 13534U 76077EG  26171.29180744  .00000196  00000-0  34193-2 0  9993
2 13534 101.8608 283.9293 0398959 193.5308 229.8532 11.68350702 25708
Epoch: 2026-06-20T07:00Z
TLE epoch observation values (Epoch: 2026-06-20T07:00:12.162Z)
Latitude
58.03134°
Longitude
-109.20058°
Altitude
2,053.704 km
Speed
6.789 km/s
True Right ascension
17h 37m 26s
True Declination
57° 54' 02"
Sunlit
Object was in daylight at epoch
Visualization orbit readout
Latitude
Unknown
Longitude
Unknown
Altitude
Unknown
Speed
Unknown
Apparent Right ascension
Unknown
Apparent Declination
Unknown
Sunlit
N/A
Visualization observer readout
Local Sidereal Time
01:25:29
Azimuth
Unknown
Elevation
Unknown
Doppler factor
Unknown
Orbital elements
Apogee altitude
2,150.614 km
Perigee altitude
1,496.198 km
Semi-major axis
8,201.543 km
Eccentricity
0.0399
Inclination
101.8608°
RAAN
283.9293°
Arg. of periapsis
193.5308°
True anomaly
226.46954°
Mean anomaly
229.8532°
Eccentric anomaly
228.15046°
Mean motion
2.92213 °/min
Orbital period
123.2 mins
BSTAR
0.0034193
Loading maneuver chart data...
Computing Atmospheric mass density...
Loading historical data...
Loading historical data...
Loading historical data...
Loading historical data...
Loading historical data...
Loading historical data...
Loading historical data...

Documentation

Showing up to 5 results
|